Stations météo

réclame
Mon MeteoGroup
Gela, Italie (16453): Température de l'air & dewpoint: 19.09.2018 11:00:00 - 25.09.2018 11:00:00 (CEST)Gela, Italie (16453): Vitesse du vent: 19.09.2018 11:00:00 - 25.09.2018 11:00:00 (CEST)Gela, Italie (16453): Direction du vent: 19.09.2018 11:00:00 - 25.09.2018 11:00:00 (CEST)Gela, Italie (16453): reduced air pressure: 19.09.2018 11:00:00 - 25.09.2018 11:00:00 (CEST)Gela, Italie (16453): visibility: 19.09.2018 11:00:00 - 25.09.2018 11:00:00 (CEST)Gela, Italie (16453): Ensoleillement: 19.09.2018 11:00:00 - 25.09.2018 11:00:00 (CEST)
Date & Time tt [°C] td [°C] ff [km/h] ff [knt] dd ppp [hPa] vv [km] sd [min]
25.09.2018 11:00:00 26,6 19,2 16 9 ENE 1019,0 18 42
25.09.2018 10:00:00 - - - - - - - -
25.09.2018 09:00:00 - - - - - - - -
25.09.2018 08:00:00 24,2 20,1 8 4 NE 1017,1 16 0
25.09.2018 07:00:00 - - - - - - - -
25.09.2018 06:00:00 - - - - - - - -
25.09.2018 05:00:00 - - - - - - - -
25.09.2018 04:00:00 - - - - - - - -
25.09.2018 03:00:00 - - - - - - - -
25.09.2018 02:00:00 - - - - - - - -
25.09.2018 01:00:00 - - - - - - - -
25.09.2018 00:00:00 - - - - - - - -
24.09.2018 23:00:00 - - - - - - - -
24.09.2018 22:00:00 - - - - - - - -
24.09.2018 21:00:00 - - - - - - - -
24.09.2018 20:00:00 25,6 21,5 18 10 W 1013,9 10 0
24.09.2018 19:00:00 - - - - - - - -
24.09.2018 18:00:00 - - - - - - - -
24.09.2018 17:00:00 26,0 20,3 26 14 W 1014,0 15 60
24.09.2018 16:00:00 - - - - - - - -
24.09.2018 15:00:00 - - - - - - - -
24.09.2018 14:00:00 26,6 20,7 21 11 NNW 1015,3 16 60
24.09.2018 13:00:00 - - - - - - - -
24.09.2018 12:00:00 - - - - - - - -
24.09.2018 11:00:00 25,0 20,7 11 6 WSW 1017,2 15 60
24.09.2018 10:00:00 - - - - - - - -
24.09.2018 09:00:00 - - - - - - - -
24.09.2018 08:00:00 22,4 19,0 4 2 NE 1016,6 15 12
24.09.2018 07:00:00 - - - - - - - -
24.09.2018 06:00:00 - - - - - - - -
24.09.2018 05:00:00 - - - - - - - -
24.09.2018 04:00:00 - - - - - - - -
24.09.2018 03:00:00 - - - - - - - -
24.09.2018 02:00:00 - - - - - - - -
24.09.2018 01:00:00 - - - - - - - -
24.09.2018 00:00:00 - - - - - - - -
23.09.2018 23:00:00 - - - - - - - -
23.09.2018 22:00:00 - - - - - - - -
23.09.2018 21:00:00 - - - - - - - -
23.09.2018 20:00:00 25,4 19,8 11 6 W 1018,9 18 0
23.09.2018 19:00:00 - - - - - - - -
23.09.2018 18:00:00 - - - - - - - -
23.09.2018 17:00:00 26,2 19,8 15 8 W 1018,8 18 60
23.09.2018 16:00:00 - - - - - - - -
23.09.2018 15:00:00 - - - - - - - -
23.09.2018 14:00:00 26,0 21,0 16 9 WSW 1019,7 18 60
23.09.2018 13:00:00 - - - - - - - -
23.09.2018 12:00:00 - - - - - - - -
23.09.2018 11:00:00 25,6 20,6 8 4 WSW 1020,1 15 60
23.09.2018 10:00:00 - - - - - - - -
23.09.2018 09:00:00 - - - - - - - -
23.09.2018 08:00:00 23,6 20,3 4 2 E 1018,6 15 18
23.09.2018 07:00:00 - - - - - - - -
23.09.2018 06:00:00 - - - - - - - -
23.09.2018 05:00:00 - - - - - - - -
23.09.2018 04:00:00 - - - - - - - -
23.09.2018 03:00:00 - - - - - - - -
23.09.2018 02:00:00 - - - - - - - -
23.09.2018 01:00:00 - - - - - - - -
23.09.2018 00:00:00 - - - - - - - -
22.09.2018 23:00:00 - - - - - - - -
22.09.2018 22:00:00 - - - - - - - -
22.09.2018 21:00:00 - - - - - - - -
22.09.2018 20:00:00 25,2 19,8 5 3 WSW 1017,0 20 0
22.09.2018 19:00:00 - - - - - - - -
22.09.2018 18:00:00 - - - - - - - -
22.09.2018 17:00:00 26,2 20,8 9 5 WSW 1016,6 20 60
22.09.2018 16:00:00 - - - - - - - -
22.09.2018 15:00:00 - - - - - - - -
22.09.2018 14:00:00 26,0 21,7 9 5 SSW 1017,0 16 60
22.09.2018 13:00:00 - - - - - - - -
22.09.2018 12:00:00 - - - - - - - -
22.09.2018 11:00:00 23,4 20,2 5 3 ENE 1017,3 4,0 0
22.09.2018 10:00:00 - - - - - - - -
22.09.2018 09:00:00 - - - - - - - -
22.09.2018 08:00:00 23,2 19,5 4 2 ESE 1015,6 4,0 0
22.09.2018 07:00:00 - - - - - - - -
22.09.2018 06:00:00 - - - - - - - -
22.09.2018 05:00:00 - - - - - - - -
22.09.2018 04:00:00 - - - - - - - -
22.09.2018 03:00:00 - - - - - - - -
22.09.2018 02:00:00 - - - - - - - -
22.09.2018 01:00:00 - - - - - - - -
22.09.2018 00:00:00 - - - - - - - -
21.09.2018 23:00:00 - - - - - - - -
21.09.2018 22:00:00 - - - - - - - -
21.09.2018 21:00:00 - - - - - - - -
21.09.2018 20:00:00 25,0 20,3 4 2 WSW 1014,2 15 0
21.09.2018 19:00:00 - - - - - - - -
21.09.2018 18:00:00 - - - - - - - -
21.09.2018 17:00:00 25,0 20,0 11 6 SW 1014,1 25 60
21.09.2018 16:00:00 - - - - - - - -
21.09.2018 15:00:00 - - - - - - - -
21.09.2018 14:00:00 25,0 19,6 8 4 SSW 1015,1 18 60
21.09.2018 13:00:00 - - - - - - - -
21.09.2018 12:00:00 - - - - - - - -
21.09.2018 11:00:00 23,6 19,3 4 2 ENE 1015,0 15 0
21.09.2018 10:00:00 - - - - - - - -
21.09.2018 09:00:00 - - - - - - - -
21.09.2018 08:00:00 23,4 19,4 9 5 ENE 1014,1 10 12
21.09.2018 07:00:00 - - - - - - - -
21.09.2018 06:00:00 - - - - - - - -
21.09.2018 05:00:00 - - - - - - - -
21.09.2018 04:00:00 - - - - - - - -
21.09.2018 03:00:00 - - - - - - - -
21.09.2018 02:00:00 - - - - - - - -
21.09.2018 01:00:00 - - - - - - - -
21.09.2018 00:00:00 - - - - - - - -
20.09.2018 23:00:00 - - - - - - - -
20.09.2018 22:00:00 - - - - - - - -
20.09.2018 21:00:00 - - - - - - - -
20.09.2018 20:00:00 24,8 19,9 2 1 N 1015,1 16 0
20.09.2018 19:00:00 - - - - - - - -
20.09.2018 18:00:00 - - - - - - - -
20.09.2018 17:00:00 25,6 19,0 13 7 SW 1015,0 20 60
20.09.2018 16:00:00 26,0 19,0 11 6 SW - 10 -
20.09.2018 15:00:00 25,0 18,0 8 4 WSW - 10 -
20.09.2018 14:00:00 25,4 18,4 8 4 SW 1016,3 20 60
20.09.2018 13:00:00 24,0 19,0 2 1 SSE - 10 -
20.09.2018 12:00:00 - - - - - - - -
20.09.2018 11:00:00 24,0 18,9 4 2 NNE 1017,1 10 0
20.09.2018 10:00:00 - - - - - - - -
20.09.2018 09:00:00 - - - - - - - -
20.09.2018 08:00:00 23,6 19,5 4 2 NE 1016,7 10 0
20.09.2018 07:00:00 - - - - - - - -
20.09.2018 06:00:00 - - - - - - - -
20.09.2018 05:00:00 - - - - - - - -
20.09.2018 04:00:00 - - - - - - - -
20.09.2018 03:00:00 - - - - - - - -
20.09.2018 02:00:00 - - - - - - - -
20.09.2018 01:00:00 - - - - - - - -
20.09.2018 00:00:00 - - - - - - - -
19.09.2018 23:00:00 - - - - - - - -
19.09.2018 22:00:00 - - - - - - - -
19.09.2018 21:00:00 - - - - - - - -
19.09.2018 20:00:00 24,0 15,8 9 5 ENE 1017,2 18 0
19.09.2018 19:00:00 25,0 15,0 8 4 E - 10 -
19.09.2018 18:00:00 26,0 15,0 8 4 NE - 10 -
19.09.2018 17:00:00 26,2 15,0 18 10 ENE 1017,8 10 0
19.09.2018 16:00:00 27,0 22,0 15 8 WSW - 10 -
19.09.2018 15:00:00 26,0 22,0 16 9 W - 10 -
19.09.2018 14:00:00 25,8 -30,0 18 10 WSW 1017,5 12 60
19.09.2018 13:00:00 26,0 21,0 15 8 SW - 10 -
19.09.2018 12:00:00 26,0 21,0 11 6 SW - 10 -
19.09.2018 11:00:00 25,6 21,1 4 2 WSW 1018,6 12 60

tt = Température de l'air
td = dewpoint
ff = Vitesse du vent
dd = Direction du vent
ppp = reduced air pressure
vv = visibility
sd = Ensoleillement

stations d'obs. à proximité